This demonstration page uses our WeatherBlox Daily Observations layout. Learn more.

Left ArrowRight Arrow

47.50024, -111.30081

Hourly Observations for June 12, 2020

Temp ( °F °C ) Dew Point ( °F °C ) Humidity (%) Winds ( mph kmh ) Pressure ( in mb ) Visibility ( mi km ) Precip ( " mm )
12:53 am 00:53 Clear 66 18.9 44 6.7 45 45 SSE 12 19 30.02 1017 10 16 0.00 0.00
1:53 am 01:53 Clear 59 15 46 7.8 62 62 Calm 30.02 1017 10 16 0.00 0.00
2:53 am 02:53 Clear 60 15.6 45 7.2 58 58 SSW 7 11 30.01 1016 10 16 0.00 0.00
3:53 am 03:53 Mostly Clear with Light Rain 61 16.1 45 7.2 56 56 NW 6 9 30.02 1017 10 16 0.00 0.00
4:53 am 04:53 Clear 59 15 46 7.8 62 62 SE 5 7 30.02 1017 10 16 0.00 0.00
5:53 am 05:53 Sunny 62 16.7 46 7.8 56 56 ENE 6 9 30.03 1017 10 16 0.00 0.00
6:53 am 06:53 Sunny 63 17.2 46 7.8 54 54 ESE 7 11 30.01 1016 10 16 0.00 0.00
7:53 am 07:53 Sunny 65 18.3 47 8.3 52 52 SE 8 13 30.00 1016 10 16 0.00 0.00
8:53 am 08:53 Sunny 67 19.4 50 10 55 55 ESE 6 9 29.99 1016 10 16 0.00 0.00
9:53 am 09:53 Sunny 73 22.8 48 8.9 41 41 ESE 9 15 29.96 1015 10 16 0.00 0.00
10:53 am 10:53 Sunny 73 22.8 49 9.4 43 43 ESE 5 7 29.94 1014 10 16 0.00 0.00
11:53 am 11:53 Sunny 77 25 52 11.1 42 42 SE 7 11 29.91 1013 10 16 0.00 0.00
12:53 pm 12:53 Sunny 80 26.7 53 11.7 39 39 ESE 9 15 29.88 1012 10 16 0.00 0.00
1:53 pm 13:53 Sunny 82 27.8 53 11.7 37 37 E 9 15 29.85 1011 10 16 0.00 0.00
2:53 pm 14:53 Sunny 84 28.9 55 12.8 37 37 E 13 20 29.82 1010 10 16 0.00 0.00
3:53 pm 15:53 Sunny 87 30.6 52 11.1 30 30 SSE 8 13 29.79 1009 10 16 0.00 0.00
4:53 pm 16:53 Sunny 88 31.1 45 7.2 22 22 S 14 22 29.76 1008 10 16 0.00 0.00
5:53 pm 17:53 Sunny 83 28.3 51 10.6 33 33 SE 8 13 29.74 1007 10 16 0.00 0.00
6:53 pm 18:53 Sunny 81 27.2 53 11.7 38 38 SE 9 15 29.72 1006 10 16 0.00 0.00
7:53 pm 19:53 Sunny 78 25.6 49 9.4 36 36 SE 10 17 29.71 1006 10 16 0.00 0.00
8:53 pm 20:53 Mostly Sunny 77 25 45 7.2 32 32 SE 10 17 29.70 1006 10 16 0.00 0.00
9:53 pm 21:53 Clear 73 22.8 44 6.7 35 35 SE 13 20 29.70 1006 10 16 0.00 0.00
10:53 pm 22:53 Clear 73 22.8 40 4.4 30 30 SSE 10 17 29.68 1005 10 16 0.00 0.00
11:53 pm 23:53 Clear 64 17.8 41 5 43 43 SSW 8 13 29.68 1005 10 16 0.00 0.00

Powered by AerisWeather